Location: Владивосток
(43.1151°N, 131.8856°E)
Time: 23:55:47
(UTC+10:00)

First-Move - Pass Details

Date: 10 July 2022
Orbit: 572 x 658 km, 97.6° (Epoch: 14 August)

Event Time Altitude Azimuth Distance (km) Brightness Sun altitude
Rises 03:50:30 0° 36° (NE) 2,987 ? -15.8°
Reaches altitude 10° 03:54:35 10° 72° (ENE) 2,076 ? -15.3°
Maximum altitude 03:55:48 11° 88° (E) 2,012 ? -15.2°
Drops below altitude 10° 03:57:00 10° 104° (ESE) 2,073 ? -15.0°
Sets 04:01:03 0° 140° (SE) 2,975 ? -14.6°
